This is the latest recevied weather packets stored in our database for station/object WB5CFT. If no packets are shown the sender has not sent any weather packets the latest 10 day(s).
| Time | Temp. | Humidity | Pressure | Rain* | Wind** | Luminosity | Snow |
|---|---|---|---|---|---|---|---|
| 1777145612 | 30.56° C | 14% | 1008.7 hPa | 0 mm | - | 709 W/m² | - |
| 1777145305 | 30.56° C | 14% | 1008.7 hPa | 0 mm | - | 819 W/m² | - |
| 1777145001 | 30.56° C | 14% | 1008.8 hPa | 0 mm | - | 769 W/m² | - |
| 1777144700 | 30.56° C | 15% | 1008.8 hPa | 0 mm | - | 823 W/m² | - |
| 1777144395 | 30.56° C | 15% | 1008.8 hPa | 0 mm | - | 780 W/m² | - |
| 1777144092 | 30° C | 15% | 1009 hPa | 0 mm | - | 828 W/m² | - |
| 1777143291 | 30° C | 16% | 1009.3 hPa | 0 mm | - | 835 W/m² | - |
| 1777142987 | 30° C | 16% | 1009.3 hPa | 0 mm | - | 835 W/m² | - |
| 1777142683 | 30° C | 15% | 1009.4 hPa | 0 mm | - | 839 W/m² | - |
| 1777142380 | 29.44° C | 16% | 1009.5 hPa | 0 mm | - | 832 W/m² | - |
| 1777142075 | 30° C | 16% | 1009.4 hPa | 0 mm | - | 824 W/m² | - |
| 1777141771 | 30° C | 15% | 1009.8 hPa | 0 mm | - | 841 W/m² | - |
| 1777141469 | 29.44° C | 16% | 1009.6 hPa | 0 mm | - | 848 W/m² | - |
| 1777141167 | 28.89° C | 16% | 1009.6 hPa | 0 mm | - | 834 W/m² | - |
| 1777140864 | 29.44° C | 16% | 1009.9 hPa | 0 mm | - | 792 W/m² | - |
| 1777140560 | 28.89° C | 16% | 1009.9 hPa | 0 mm | - | 365 W/m² | - |
| 1777140257 | 29.44° C | 16% | 1010 hPa | 0 mm | - | 805 W/m² | - |
| 1777139955 | 29.44° C | 15% | 1010.1 hPa | 0 mm | - | 800 W/m² | - |
| 1777139652 | 28.89° C | 16% | 1010.1 hPa | 0 mm | - | 786 W/m² | - |
| 1777139347 | 28.89° C | 16% | 1010.1 hPa | 0 mm | - | 792 W/m² | - |
| 1777139043 | 28.89° C | 16% | 1010.3 hPa | 0 mm | - | 788 W/m² | - |
| 1777138741 | 28.89° C | 15% | 1010.3 hPa | 0 mm | - | 774 W/m² | - |
| 1777138441 | 28.33° C | 16% | 1010.2 hPa | 0 mm | - | 61 W/m² | - |
| 1777138137 | 28.33° C | 16% | 1010.3 hPa | 0 mm | - | 760 W/m² | - |
| 1777137833 | 28.89° C | 16% | 1010.4 hPa | 0 mm | - | 754 W/m² | - |
* Rain latest hour (hover to see other rain measurements)
** Current wind speed in m/s (hover to see current wind gust speed)